[[{"header":{"parameterUnit":"m.s-1","parameterCategory":1,"la1":30.2991,"la2":30.254,"lo1":-89.0895,"lo2":-89.0444,"dy":0.0017,"dx":0.0017,"nx":28,"ny":28,"refTime":"2024-08-26T21:00:00:Z","depth":0,"parameterNumber":2,"parameterNumberName":"U-component_of_WINDS"},"data":[0,0,0,0,0,0,0,0,0,0,0,0,0,0,0,0,0,0,0,0,0,0,0,0,0,0,0,0,0,0,0,0,0,0,0,0,0,0,0,0,0,0,0,0,0,0,0,0,0,0,0,0,0,0,0,0,0,0,-0.5567,-0.5568,0,-0.5584,-0.5584,-0.5584,-0.5583,-0.5583,-0.5583,-0.5582,-0.56,-0.56,-0.5601,0,0,0,0,0,0,0,0,0,0,0,0,0,-0.5538,-0.5538,-0.5567,-0.5568,-0.5568,-0.5584,-0.5584,-0.5584,-0.5583,-0.5583,-0.5583,-0.5582,-0.5599,-0.56,-0.5601,0,0,0,0,0,0,0,0,0,0,0,0,0,-0.5552,-0.5538,-0.5567,-0.5569,-0.557,-0.5583,-0.5584,-0.5584,-0.5583,-0.5583,-0.5583,-0.5582,-0.5599,-0.56,-0.5601,-0.5614,0,0,-0.5604,-0.5605,0,0,0,0,0,0,0,0,-0.5551,-0.5553,-0.5569,-0.5569,-0.557,-0.5581,-0.558,-0.5594,-0.5583,-0.5578,-0.5582,-0.5582,-0.5594,-0.5595,-0.5599,-0.5615,-0.5616,-0.5604,-0.5605,-0.5605,-0.5606,0,0,0,0,0,0,0,-0.555,-0.5552,-0.5574,-0.5569,-0.557,-0.557,-0.5572,-0.5582,-0.5588,-0.5579,-0.5579,-0.558,-0.5594,-0.5598,-0.5599,-0.5616,-0.5604,-0.5605,-0.5606,-0.5606,-0.5645,-0.5646,0,0,0,0,0,0,-0.5549,-0.5551,-0.5573,-0.5574,-0.5559,-0.5571,-0.5573,-0.5578,-0.5588,-0.5589,-0.5581,-0.558,-0.5596,-0.5598,-0.56,-0.5617,-0.5605,-0.5606,-0.5607,-0.5645,-0.5645,-0.5646,0,0,0,0,0,0,-0.5548,-0.555,-0.5573,-0.5563,-0.5566,-0.5572,-0.5577,-0.5578,-0.5582,-0.5589,-0.559,-0.5584,-0.5596,-0.5599,-0.5611,-0.5617,-0.5607,-0.5608,-0.5644,-0.5645,-0.5646,-0.565,0,0,0,0,0,0,-0.5547,-0.555,-0.5555,-0.5563,-0.5566,-0.5583,-0.5578,-0.5579,-0.5584,-0.5584,-0.5592,-0.5594,-0.5596,-0.561,-0.5612,-0.5619,-0.5608,-0.5644,-0.5645,-0.5645,-0.565,-0.5651,-0.5652,0,0,0,0,0,-0.5546,-0.5555,-0.5555,-0.5558,-0.5572,-0.5583,-0.5585,-0.5588,-0.5584,-0.559,-0.5594,-0.5593,-0.5616,-0.5611,-0.5614,-0.5621,-0.5643,-0.5644,-0.5645,-0.5649,-0.5651,-0.5652,0,0,0,0,0,0,-0.5548,-0.5556,-0.5556,-0.5568,-0.5575,-0.5583,-0.5589,-0.5589,-0.5597,-0.5597,-0.56,-0.5602,-0.5615,-0.5619,-0.5613,-0.5635,-0.563,-0.5631,-0.5631,-0.5633,-0.5634,-0.5633,-0.5609,0,0,0,0,0,-0.555,-0.5558,-0.5565,-0.5575,-0.5578,-0.5583,-0.5588,-0.559,-0.5597,-0.56,-0.5605,-0.5613,-0.5622,-0.5628,-0.5636,-0.565,-0.5653,-0.5657,-0.5658,-0.5659,-0.566,-0.5669,-0.5672,-0.5649,-0.5649,-0.5649,0,0,-0.5553,-0.5559,-0.5564,-0.5576,-0.5581,-0.559,-0.5586,-0.5595,-0.5602,-0.5601,-0.5614,-0.5618,-0.5627,-0.564,-0.5646,-0.5644,-0.5667,-0.566,-0.5661,-0.5662,-0.5671,-0.5673,-0.5675,-0.565,-0.565,-0.5649,0,0,-0.5565,-0.557,-0.5579,-0.5585,-0.5593,-0.5597,-0.5599,-0.5607,-0.561,-0.5623,-0.5623,-0.5631,-0.5646,-0.5653,-0.5658,-0.5674,-0.5673,-0.5676,-0.5683,-0.5692,-0.5694,-0.5695,-0.5702,-0.5704,-0.5678,-0.5678,-0.5678,0,-0.5569,-0.5582,-0.5584,-0.5594,-0.5599,-0.56,-0.561,-0.5615,-0.5626,-0.563,-0.5627,-0.5647,-0.5653,-0.5669,-0.5672,-0.5676,-0.568,-0.5675,-0.5693,-0.5695,-0.5696,-0.5702,-0.5705,-0.5678,-0.5678,-0.5678,-0.5678,0,-0.5586,-0.5595,-0.5602,-0.5613,-0.5619,-0.5629,-0.5634,-0.564,-0.5641,-0.5645,-0.5658,-0.5665,-0.5676,-0.568,-0.5681,-0.5696,-0.5694,-0.5692,-0.5687,-0.5699,-0.5705,-0.5707,-0.5678,-0.5678,-0.5678,-0.5678,0,0,-0.5599,-0.5612,-0.5614,-0.5619,-0.5629,-0.5636,-0.5647,-0.5657,-0.5663,-0.567,-0.568,-0.5693,-0.5692,-0.5698,-0.57,-0.5707,-0.572,-0.5705,-0.5705,-0.5708,-0.5739,-0.574,-0.5743,-0.572,-0.5721,-0.5721,-0.5738,0,-0.5612,-0.563,-0.5633,-0.5649,-0.5658,-0.5659,-0.5668,-0.5676,-0.568,-0.5689,-0.5694,-0.5703,-0.57,-0.5704,-0.5712,-0.5717,-0.5727,-0.5716,-0.573,-0.573,-0.5728,-0.5746,-0.5748,-0.5763,-0.574,-0.5741,-0.5741,0,-0.563,-0.5638,-0.5655,-0.5664,-0.5668,-0.5676,-0.5687,-0.5695,-0.5704,-0.5706,-0.5714,-0.5715,-0.5727,-0.5721,-0.5738,-0.5731,-0.5737,-0.5741,-0.5741,-0.5743,-0.5736,-0.5749,-0.5768,-0.5771,-0.5744,-0.5744,-0.5744,0,-0.5638,-0.5654,-0.5666,-0.5671,-0.5682,-0.5688,-0.5693,-0.5701,-0.5707,-0.5717,-0.5721,-0.5731,-0.5737,-0.5746,-0.5751,-0.5746,-0.5767,-0.5762,-0.5771,-0.5771,-0.5775,-0.5775,-0.5796,-0.5778,-0.5778,-0.5778,-0.5778,0,-0.5653,-0.5663,-0.567,-0.5678,-0.569,-0.5694,-0.5706,-0.5711,-0.5719,-0.5728,-0.5729,-0.5738,-0.5744,-0.5754,-0.5757,-0.5771,-0.5774,-0.5777,-0.5778,-0.5777,-0.5777,-0.5781,-0.578,-0.5779,-0.5779,-0.5778,-0.5778,0,-0.5664,-0.5669,-0.5683,-0.5693,-0.5695,-0.5704,-0.5713,-0.5721,-0.5725,-0.5737,-0.574,-0.5747,-0.5759,-0.5765,-0.5779,-0.5782,-0.5798,-0.5798,-0.5795,-0.5795,-0.5804,-0.5803,-0.583,-0.5834,-0.5812,-0.5812,-0.5813,0,-0.5674,-0.5682,-0.5692,-0.5699,-0.5704,-0.5714,-0.572,-0.5725,-0.5732,-0.5743,-0.575,-0.5762,-0.5772,-0.5791,-0.5798,-0.5809,-0.581,-0.5818,-0.5811,-0.5811,-0.5811,-0.581,-0.5812,-0.5819,-0.582,-0.582,-0.582,0,-0.569,-0.5692,-0.5701,-0.5712,-0.572,-0.5728,-0.5737,-0.5742,-0.5748,-0.5756,-0.5768,-0.5775,-0.5791,-0.5803,-0.5815,-0.5821,-0.5822,-0.5822,-0.5825,-0.5824,-0.5822,-0.5824,-0.5799,-0.5821,-0.5821,-0.5821,-0.5821,-0.5821,-0.5701,-0.5709,-0.5718,-0.5728,-0.5735,-0.5743,-0.5751,-0.5757,-0.5767,-0.578,-0.5782,-0.5795,-0.5805,-0.5821,-0.5828,-0.5839,-0.5837,-0.5841,-0.5842,-0.5843,-0.5844,-0.582,-0.5841,-0.5841,-0.5841,-0.5841,-0.5841,0,-0.5718,-0.5724,-0.5733,-0.5745,-0.5754,-0.5754,-0.5764,-0.5771,-0.5782,-0.5791,-0.5801,-0.5816,-0.5828,-0.5836,-0.5848,-0.5855,-0.5856,-0.5859,-0.5858,-0.586,-0.5844,-0.5841,-0.5858,-0.5858,-0.5858,-0.5858,-0.5858,-0.5858,-0.5728,-0.5741,-0.5744,-0.5762,-0.5768,-0.578,-0.5786,-0.5794,-0.5801,-0.5817,-0.5827,-0.5832,-0.5841,-0.5855,-0.5866,-0.5868,-0.5873,-0.5875,-0.5878,-0.5863,-0.5861,-0.5859,-0.5856,-0.5876,-0.5876,-0.5893,-0.5893,-0.5893]},{"header":{"parameterUnit":"m.s-1","parameterCategory":1,"la1":30.2991,"la2":30.254,"lo1":-89.0895,"lo2":-89.0444,"dy":0.0017,"dx":0.0017,"nx":28,"ny":28,"refTime":"2024-08-26T21:00:00:Z","depth":0,"parameterNumber":3,"parameterNumberName":"V-component_of_WINDS"},"data":[0,0,0,0,0,0,0,0,0,0,0,0,0,0,0,0,0,0,0,0,0,0,0,0,0,0,0,0,0,0,0,0,0,0,0,0,0,0,0,0,0,0,0,0,0,0,0,0,0,0,0,0,0,0,0,0,0,0,2.8976,2.8975,0,2.8957,2.8956,2.8956,2.8919,2.8918,2.8917,2.8917,2.8898,2.8898,2.8898,0,0,0,0,0,0,0,0,0,0,0,0,0,2.898,2.898,2.8976,2.8975,2.8975,2.8957,2.8956,2.8956,2.8919,2.8918,2.8917,2.8916,2.8898,2.8898,2.8898,0,0,0,0,0,0,0,0,0,0,0,0,0,2.8972,2.898,2.8976,2.8954,2.8952,2.8957,2.8956,2.8956,2.8919,2.8918,2.8917,2.8916,2.8898,2.8898,2.8898,2.8922,0,0,2.8899,2.8899,0,0,0,0,0,0,0,0,2.8972,2.8971,2.8958,2.8956,2.8953,2.8939,2.8951,2.8945,2.8919,2.8932,2.8917,2.8915,2.8912,2.8911,2.891,2.8921,2.892,2.8899,2.8899,2.8899,2.8899,0,0,0,0,0,0,0,2.8973,2.8972,2.8968,2.8958,2.8955,2.8946,2.8943,2.895,2.8929,2.8931,2.8928,2.8926,2.8911,2.891,2.891,2.892,2.8899,2.8899,2.8899,2.89,2.8949,2.895,0,0,0,0,0,0,2.8976,2.8973,2.8969,2.8967,2.896,2.8947,2.8944,2.8945,2.8928,2.8925,2.8927,2.8924,2.891,2.8909,2.8909,2.8934,2.8899,2.89,2.89,2.8948,2.8949,2.895,0,0,0,0,0,0,2.8977,2.8976,2.8969,2.8969,2.8968,2.8948,2.8949,2.8945,2.8944,2.8926,2.8922,2.893,2.8909,2.8908,2.8919,2.8933,2.89,2.89,2.8946,2.8948,2.895,2.8987,0,0,0,0,0,0,2.8977,2.8977,2.8985,2.897,2.8968,2.898,2.895,2.8945,2.8944,2.8941,2.8927,2.8924,2.8908,2.8919,2.8919,2.8933,2.89,2.8945,2.8947,2.8949,2.8984,2.8989,2.8994,0,0,0,0,0,2.8977,2.8997,2.8986,2.8986,2.8978,2.8981,2.8979,2.8961,2.8946,2.8954,2.8943,2.8924,2.8932,2.892,2.892,2.8934,2.8944,2.8946,2.8949,2.8982,2.8988,2.8994,0,0,0,0,0,0,2.9014,2.8994,2.8982,2.8997,2.8991,2.8974,2.8984,2.8969,2.8966,2.8963,2.8941,2.8938,2.8951,2.8944,2.8931,2.8956,2.8935,2.8938,2.896,2.8966,2.8971,2.8971,2.89,0,0,0,0,0,2.9025,2.9028,2.901,2.9025,2.9023,2.9004,2.9005,2.8991,2.8983,2.8981,2.897,2.8963,2.8964,2.8965,2.8965,2.8984,2.8979,2.8994,2.8999,2.9003,2.9005,2.9013,2.9019,2.8959,2.8959,2.8958,0,0,2.9045,2.9035,2.9038,2.9033,2.9026,2.903,2.9002,2.9008,2.901,2.8981,2.899,2.8982,2.8973,2.8988,2.8994,2.8982,2.9021,2.9006,2.901,2.9009,2.9016,2.9022,2.9027,2.896,2.896,2.896,0,0,2.9084,2.9077,2.9088,2.9082,2.9073,2.906,2.9063,2.9049,2.9042,2.9051,2.9029,2.9032,2.9035,2.9029,2.9026,2.9064,2.9047,2.9065,2.909,2.9099,2.9103,2.9108,2.9119,2.9124,2.9068,2.9068,2.9068,0,2.9111,2.9115,2.9096,2.9102,2.91,2.9075,2.9086,2.9081,2.9073,2.9072,2.906,2.9061,2.9054,2.9066,2.9075,2.9075,2.9077,2.9065,2.9104,2.9108,2.9112,2.9123,2.9128,2.907,2.907,2.9069,2.9069,0,2.9148,2.9152,2.9162,2.9153,2.9153,2.9162,2.9144,2.9146,2.9133,2.9122,2.913,2.9121,2.9118,2.912,2.9107,2.913,2.9123,2.9109,2.9086,2.912,2.913,2.9134,2.9073,2.9072,2.9071,2.9071,0,0,2.9208,2.9189,2.9193,2.9188,2.9177,2.9179,2.9187,2.9184,2.9185,2.9181,2.9186,2.9189,2.9175,2.9172,2.9159,2.9166,2.9195,2.915,2.915,2.9157,2.9218,2.9228,2.9234,2.9185,2.9186,2.9186,2.9219,0,2.9243,2.9254,2.9237,2.9253,2.9255,2.9232,2.9239,2.9232,2.9223,2.9224,2.9213,2.9215,2.9197,2.9195,2.9202,2.919,2.9207,2.9188,2.9189,2.9189,2.9189,2.9239,2.925,2.9281,2.9223,2.9223,2.9224,0,2.9284,2.9281,2.9296,2.9283,2.9284,2.929,2.9286,2.9287,2.928,2.9272,2.9269,2.9254,2.926,2.9241,2.9249,2.9237,2.9236,2.9231,2.9232,2.9229,2.9207,2.9236,2.929,2.9294,2.923,2.9229,2.9229,0,2.9324,2.9324,2.9333,2.933,2.9316,2.932,2.9315,2.9306,2.9305,2.9302,2.9301,2.9299,2.9297,2.9295,2.928,2.9267,2.929,2.9269,2.9283,2.9283,2.9287,2.9286,2.9339,2.929,2.929,2.929,2.929,0,2.9363,2.9374,2.9351,2.9356,2.9367,2.9348,2.9359,2.9351,2.9343,2.9346,2.9327,2.9331,2.931,2.9312,2.93,2.9308,2.9308,2.9301,2.9297,2.9302,2.9302,2.93,2.9296,2.9291,2.9291,2.9291,2.929,0,2.9409,2.9394,2.9402,2.9388,2.9385,2.9393,2.938,2.9385,2.9375,2.9379,2.9379,2.9362,2.9363,2.9348,2.9346,2.9337,2.935,2.9344,2.9353,2.935,2.9364,2.9362,2.9415,2.9421,2.937,2.937,2.9371,0,2.9434,2.9441,2.9427,2.9428,2.9423,2.9425,2.9424,2.9406,2.9406,2.9398,2.9403,2.9402,2.94,2.9402,2.939,2.9388,2.938,2.9399,2.938,2.9384,2.9379,2.9378,2.9378,2.9403,2.9403,2.9404,2.9404,0,2.9479,2.9472,2.9471,2.9468,2.9467,2.9464,2.9459,2.9461,2.9442,2.9443,2.9443,2.9442,2.9439,2.9438,2.9434,2.9428,2.9413,2.9411,2.9414,2.9417,2.9421,2.9417,2.9362,2.9409,2.9409,2.9408,2.9408,2.9408,2.9514,2.9519,2.951,2.951,2.9505,2.9501,2.9504,2.9494,2.9494,2.949,2.948,2.9482,2.9474,2.9467,2.9463,2.9464,2.9454,2.9459,2.946,2.9461,2.9462,2.9423,2.9463,2.9463,2.9463,2.9463,2.9463,0,2.9557,2.955,2.955,2.9544,2.9544,2.9531,2.9525,2.9526,2.9527,2.9522,2.952,2.952,2.952,2.9508,2.9505,2.9508,2.9501,2.9508,2.9507,2.9505,2.9472,2.9469,2.9514,2.9514,2.9514,2.9514,2.9514,2.9514,2.9579,2.9586,2.9577,2.9582,2.9575,2.9577,2.9575,2.9571,2.9566,2.9567,2.9566,2.9559,2.955,2.9547,2.9546,2.9542,2.9542,2.9551,2.9545,2.9513,2.9508,2.9503,2.95,2.9551,2.9551,2.9578,2.9578,2.9578]}]]